Location: Tehachapi Municipal Airport
(35.1300°N, 118.4400°W)
Time: 19:15:09
(UTC-07:00)

BREEZE M DEB (TANK) - Visible Passes

Search period start: 22 October 2014 00:00
Search period end: 01 November 2014 00:00
Orbit: 307 x 12186 km, 49.5° (Epoch: 22 October)

Date Brightness Start Highest point End Pass type
(mag) Time Alt. Az. Time Alt. Az. Time Alt. Az.
22 Oct 5.7 22:10:46 10° W 22:29:11 39° NW 22:29:11 39° NW visible
23 Oct 5.3 21:36:11 10° WSW 22:00:39 48° NW 22:01:00 48° NNW visible
24 Oct 5.1 21:01:01 10° WSW 21:30:58 57° NW 21:32:47 51° N visible
25 Oct 5.1 20:25:26 10° WSW 21:01:10 66° NW 21:04:31 46° NNE visible
26 Oct 5.3 19:49:37 10° SW 20:31:15 75° NW 20:36:14 37° NE visible
27 Oct 5.5 19:13:49 10° SW 20:01:11 84° NW 20:07:54 28° NE visible
28 Oct 5.8 18:38:14 10° SW 19:30:57 87° SE 19:39:32 19° NE visible
28 Oct 6.7 23:33:09 10° WNW 23:34:48 13° NW 23:34:48 13° NW visible
29 Oct 6.0 18:03:04 10° SSW 19:00:30 79° SE 19:11:07 12° NE visible
29 Oct 6.4 23:00:43 10° WNW 23:06:23 19° NW 23:06:23 19° NW visible
30 Oct 6.2 17:28:27 10° SSW 18:29:51 71° SE 18:42:02 10° ENE visible
30 Oct 6.1 22:27:35 10° WNW 22:37:56 26° NW 22:37:56 26° NW visible
31 Oct 5.8 21:53:37 10° W 22:09:27 33° NNW 22:09:27 33° NNW visible
